Home > Weather > Belleville > Past weeks

Flag for Canada Past Weather in Belleville, Ontario, Canada — Yesterday and Last 2 Weeks

Now
64 °F

Passing clouds.


Feels Like: 64 °F
Forecast: 56 / 87 °F
Wind: No wind

Location: Trenton

Current Time: Jun 25, 2016 at 10:57:28 PM

Latest Report: Jun 25, 2016 at 10:00 PM


Visibility: 15 mi

Pressure: 30.11 "Hg

Humidity: 64%

Dew Point: 52 °F

Location of BellevilleLocation

Past Weather in Belleville — Graph

°F

Belleville Temperature Yesterday

Maximum temperature yesterday: 77 °F (at 12:00 PM)
Minimum temperature yesterday: 52 °F (at 5:00 AM)
Average temperature yesterday: 67 °F

High & Low Weather Summary for the Past Weeks

 TemperatureHumidityPressure
High84 °F (Jun 16, 4:00 PM)94% (Jun 11, 8:00 AM)30.26 "Hg (Jun 11, 8:00 AM)
Low45 °F (Jun 14, 6:00 AM)29% (Jun 16, 4:00 PM)29.63 "Hg (Jun 12, 12:00 AM)
Average66 °F59%29.95 "Hg
* Reported Jun 10 9:00 PM — Jun 25 9:00 PM, Belleville, Weather by CustomWeather, © 2016

Note: Actual official high and low records may vary slightly from our data, if they occured in-between our weather recording intervals... More about our weather records

Advertising

Belleville Weather History for the Previous 24 Hours

Scroll right to see more
 ConditionsComfort  
Time TempWeatherWind HumidityBarometerVisibility
9:00 PM
Sat, Jun 25
73 °FPassing clouds.3 mph44%30.10 "Hg15 mi
8:00 PM77 °FPartly sunny.6 mph39%30.11 "Hg15 mi
7:00 PM81 °FPartly sunny.5 mph37%30.12 "Hg15 mi
6:00 PM82 °FPartly sunny.5 mph32%30.13 "Hg15 mi
5:00 PM82 °FPartly sunny.7 mph35%30.13 "Hg15 mi
4:00 PM82 °FPartly sunny.7 mph35%30.14 "Hg15 mi
3:00 PM81 °FPartly sunny.10 mph37%30.17 "Hg15 mi
2:00 PM81 °FPartly sunny.9 mph37%30.16 "Hg15 mi
1:00 PM77 °FPartly sunny.12 mph42%30.17 "Hg15 mi
12:00 PM79 °FPartly sunny.6 mph42%30.17 "Hg15 mi
11:00 AM81 °FPassing clouds.3 mph39%30.18 "Hg15 mi
10:00 AM77 °FPassing clouds.2 mph42%30.19 "Hg15 mi
9:00 AM72 °FSunny.No wind61%30.18 "Hg15 mi
8:00 AM66 °FSunny.No wind73%30.17 "Hg15 mi
7:00 AM59 °FPassing clouds.No wind82%30.16 "Hg15 mi
6:00 AM52 °FPassing clouds.3 mph88%30.15 "Hg15 mi
5:00 AM54 °FPassing clouds.3 mph88%30.14 "Hg15 mi
4:00 AM54 °FClear.No wind88%30.13 "Hg15 mi
3:00 AM55 °FClear.No wind82%30.13 "Hg15 mi
2:00 AM55 °FClear.2 mph82%30.12 "Hg15 mi
1:00 AM59 °FClear.No wind77%30.11 "Hg15 mi
12:00 AM59 °FPassing clouds.No wind77%30.10 "Hg15 mi
11:00 PM
Fri, Jun 24
59 °FClear.2 mph72%30.10 "Hg15 mi
10:00 PM63 °FPassing clouds.2 mph64%30.09 "Hg15 mi
Weather by CustomWeather, © 2016

See weather overviewHow to use our weather pages